Time,TemperatureF,DewpointF,PressureIn,WindDirection,WindDirectionDegrees,WindSpeedMPH,WindSpeedGustMPH,Humidity,HourlyPrecipIn,Conditions,Clouds,dailyrainin,SolarRadiationWatts/m^2,SoftwareType,DateUTC
2013-04-03 00:03:00,35.0,11.0,-100.00,NNW,339,2.0,10.0,36,0.00,,,0.00,0.000000,,2013-04-03 04:03:00,
2013-04-03 00:33:00,33.0,12.0,-100.00,WNW,297,2.0,7.0,41,0.00,,,0.00,0.000000,,2013-04-03 04:33:00,
2013-04-03 00:43:00,33.0,12.0,-100.00,WNW,297,2.0,7.0,41,0.00,,,0.00,0.000000,,2013-04-03 04:43:00,
2013-04-03 00:53:00,33.0,12.0,-100.00,WNW,297,2.0,7.0,41,0.00,,,0.00,0.000000,,2013-04-03 04:53:00,
2013-04-03 01:03:00,33.0,12.0,-100.00,WNW,297,2.0,7.0,41,0.00,,,0.00,0.000000,,2013-04-03 05:03:00,
2013-04-03 01:12:00,33.0,12.0,-100.00,WNW,297,2.0,7.0,41,0.00,,,0.00,0.000000,,2013-04-03 05:12:00,
2013-04-03 01:42:00,31.0,12.0,-100.00,South,177,2.0,7.0,44,0.00,,,0.00,0.000000,,2013-04-03 05:42:00,
2013-04-03 01:53:00,31.0,12.0,-100.00,South,177,2.0,7.0,44,0.00,,,0.00,0.000000,,2013-04-03 05:53:00,
2013-04-03 02:03:00,31.0,12.0,-100.00,South,177,2.0,7.0,44,0.00,,,0.00,0.000000,,2013-04-03 06:03:00,
2013-04-03 02:12:00,31.0,12.0,-100.00,South,177,2.0,7.0,44,0.00,,,0.00,0.000000,,2013-04-03 06:12:00,
2013-04-03 02:32:00,31.0,14.0,-100.00,South,179,2.0,5.0,48,0.00,,,0.00,0.000000,,2013-04-03 06:32:00,
2013-04-03 02:42:00,31.0,14.0,-100.00,South,179,2.0,5.0,48,0.00,,,0.00,0.000000,,2013-04-03 06:42:00,
2013-04-03 02:52:00,31.0,14.0,-100.00,South,179,2.0,5.0,48,0.00,,,0.00,0.000000,,2013-04-03 06:52:00,
2013-04-03 03:02:00,31.0,14.0,-100.00,South,179,2.0,5.0,48,0.00,,,0.00,0.000000,,2013-04-03 07:02:00,
2013-04-03 03:12:00,31.0,14.0,-100.00,South,179,2.0,5.0,48,0.00,,,0.00,0.000000,,2013-04-03 07:12:00,
2013-04-03 03:33:00,30.0,14.0,-100.00,SW,217,4.0,7.0,51,0.00,,,-99.99,0.000000,,2013-04-03 07:33:00,
2013-04-03 03:43:00,30.0,14.0,-100.00,SW,217,4.0,7.0,51,0.00,,,-99.99,0.000000,,2013-04-03 07:43:00,
2013-04-03 03:53:00,30.0,14.0,-100.00,SW,217,4.0,7.0,51,0.00,,,-99.99,0.000000,,2013-04-03 07:53:00,
2013-04-03 04:03:00,30.0,14.0,-100.00,SW,217,4.0,7.0,51,0.00,,,-99.99,0.000000,,2013-04-03 08:03:00,
2013-04-03 04:12:00,30.0,14.0,-100.00,SW,217,4.0,7.0,51,0.00,,,-99.99,0.000000,,2013-04-03 08:12:00,
2013-04-03 04:33:00,30.0,14.0,-100.00,WSW,246,4.0,7.0,51,0.00,,,0.00,0.000000,,2013-04-03 08:33:00,
2013-04-03 04:43:00,30.0,14.0,-100.00,WSW,246,4.0,7.0,51,0.00,,,0.00,0.000000,,2013-04-03 08:43:00,
2013-04-03 04:52:00,30.0,14.0,-100.00,WSW,246,4.0,7.0,51,0.00,,,0.00,0.000000,,2013-04-03 08:52:00,
2013-04-03 05:02:00,30.0,14.0,-100.00,WSW,246,4.0,7.0,51,0.00,,,0.00,0.000000,,2013-04-03 09:02:00,
2013-04-03 05:12:00,30.0,14.0,-100.00,WSW,246,4.0,7.0,51,0.00,,,0.00,0.000000,,2013-04-03 09:12:00,
2013-04-03 05:43:00,28.0,13.0,-100.00,SSW,200,5.0,7.0,53,0.00,,,0.00,0.000000,,2013-04-03 09:43:00,
2013-04-03 05:53:00,28.0,13.0,-100.00,SSW,200,5.0,7.0,53,0.00,,,0.00,0.000000,,2013-04-03 09:53:00,
2013-04-03 06:03:00,28.0,13.0,-100.00,SSW,200,5.0,7.0,53,0.00,,,0.00,0.000000,,2013-04-03 10:03:00,
2013-04-03 06:12:00,28.0,13.0,-100.00,SSW,200,5.0,7.0,53,0.00,,,0.00,0.000000,,2013-04-03 10:12:00,
2013-04-03 06:43:00,29.0,14.0,-100.00,South,170,5.0,8.0,54,0.00,,,0.00,0.000000,,2013-04-03 10:43:00,
2013-04-03 06:53:00,29.0,14.0,-100.00,South,170,5.0,8.0,54,0.00,,,0.00,0.000000,,2013-04-03 10:53:00,
2013-04-03 07:02:00,29.0,14.0,-100.00,South,170,5.0,8.0,54,0.00,,,0.00,0.000000,,2013-04-03 11:02:00,
2013-04-03 07:12:00,29.0,14.0,-100.00,South,170,5.0,8.0,54,0.00,,,0.00,0.000000,,2013-04-03 11:12:00,
2013-04-03 07:13:00,31.0,14.0,-100.00,SW,228,4.0,7.0,49,0.00,,,0.00,5.000000,,2013-04-03 11:13:00,
2013-04-03 07:42:00,31.0,14.0,-100.00,SW,228,4.0,7.0,49,0.00,,,0.00,5.000000,,2013-04-03 11:42:00,
2013-04-03 07:53:00,31.0,14.0,-100.00,SW,228,4.0,7.0,49,0.00,,,0.00,5.000000,,2013-04-03 11:53:00,
2013-04-03 08:02:00,31.0,14.0,-100.00,SW,228,4.0,7.0,49,0.00,,,0.00,5.000000,,2013-04-03 12:02:00,
2013-04-03 08:33:00,36.0,17.0,-100.00,West,271,5.0,7.0,45,0.00,,,-99.99,107.000000,,2013-04-03 12:33:00,
2013-04-03 08:42:00,36.0,17.0,-100.00,West,271,5.0,7.0,45,0.00,,,-99.99,107.000000,,2013-04-03 12:42:00,
2013-04-03 08:52:00,36.0,17.0,-100.00,West,271,5.0,7.0,45,0.00,,,-99.99,107.000000,,2013-04-03 12:52:00,
2013-04-03 09:02:00,36.0,17.0,-100.00,West,271,5.0,7.0,45,0.00,,,-99.99,107.000000,,2013-04-03 13:02:00,
2013-04-03 09:12:00,36.0,17.0,-100.00,West,271,5.0,7.0,45,0.00,,,-99.99,107.000000,,2013-04-03 13:12:00,
2013-04-03 09:13:00,41.0,17.0,-100.00,NW,305,7.0,13.0,37,0.00,,,0.00,301.000000,,2013-04-03 13:13:00,
2013-04-03 09:42:00,41.0,17.0,-100.00,NW,305,7.0,13.0,37,0.00,,,0.00,301.000000,,2013-04-03 13:42:00,
2013-04-03 09:52:00,41.0,17.0,-100.00,NW,305,7.0,13.0,37,0.00,,,0.00,301.000000,,2013-04-03 13:52:00,
2013-04-03 10:02:00,41.0,17.0,-100.00,NW,305,7.0,13.0,37,0.00,,,0.00,301.000000,,2013-04-03 14:02:00,
2013-04-03 10:13:00,43.0,17.0,-100.00,West,279,8.0,16.0,34,0.00,,,0.00,498.000000,,2013-04-03 14:13:00,
2013-04-03 10:43:00,43.0,17.0,-100.00,West,279,8.0,16.0,34,0.00,,,0.00,498.000000,,2013-04-03 14:43:00,
2013-04-03 10:52:00,43.0,17.0,-100.00,West,279,8.0,16.0,34,0.00,,,0.00,498.000000,,2013-04-03 14:52:00,
2013-04-03 11:02:00,43.0,17.0,-100.00,West,279,8.0,16.0,34,0.00,,,0.00,498.000000,,2013-04-03 15:02:00,
2013-04-03 11:13:00,44.0,15.0,-100.00,WNW,290,11.0,19.0,30,0.00,,,0.00,660.000000,,2013-04-03 15:13:00,
2013-04-03 11:43:00,44.0,15.0,-100.00,WNW,290,11.0,19.0,30,0.00,,,0.00,660.000000,,2013-04-03 15:43:00,
2013-04-03 11:53:00,44.0,15.0,-100.00,WNW,290,11.0,19.0,30,0.00,,,0.00,660.000000,,2013-04-03 15:53:00,
2013-04-03 12:04:00,44.0,15.0,-100.00,WNW,290,11.0,19.0,30,0.00,,,0.00,660.000000,,2013-04-03 16:04:00,
2013-04-03 12:13:00,45.0,15.0,-100.00,NW,306,11.0,18.0,29,0.00,,,0.00,771.000000,,2013-04-03 16:13:00,
2013-04-03 12:44:00,45.0,15.0,-100.00,NW,306,11.0,18.0,29,0.00,,,0.00,771.000000,,2013-04-03 16:44:00,
2013-04-03 12:53:00,45.0,15.0,-100.00,NW,306,11.0,18.0,29,0.00,,,0.00,771.000000,,2013-04-03 16:53:00,
2013-04-03 13:03:00,45.0,15.0,-100.00,NW,306,11.0,18.0,29,0.00,,,0.00,771.000000,,2013-04-03 17:03:00,
2013-04-03 13:13:00,48.0,15.0,-100.00,West,280,12.0,22.0,26,0.00,,,0.00,861.000000,,2013-04-03 17:13:00,
2013-04-03 13:35:00,48.0,15.0,-100.00,West,280,12.0,22.0,26,0.00,,,0.00,861.000000,,2013-04-03 17:35:00,
2013-04-03 13:47:00,48.0,15.0,-100.00,West,280,12.0,22.0,26,0.00,,,0.00,861.000000,,2013-04-03 17:47:00,
2013-04-03 13:54:00,48.0,15.0,-100.00,West,280,12.0,22.0,26,0.00,,,0.00,861.000000,,2013-04-03 17:54:00,
2013-04-03 14:02:00,48.0,15.0,-100.00,West,280,12.0,22.0,26,0.00,,,0.00,861.000000,,2013-04-03 18:02:00,
2013-04-03 14:35:00,50.0,14.0,-100.00,WNW,284,12.0,22.0,23,0.00,,,0.00,875.000000,,2013-04-03 18:35:00,
2013-04-03 14:43:00,50.0,14.0,-100.00,WNW,284,12.0,22.0,23,0.00,,,0.00,875.000000,,2013-04-03 18:43:00,
2013-04-03 14:52:00,50.0,14.0,-100.00,WNW,284,12.0,22.0,23,0.00,,,0.00,875.000000,,2013-04-03 18:52:00,
2013-04-03 15:03:00,50.0,14.0,-100.00,WNW,284,12.0,22.0,23,0.00,,,0.00,875.000000,,2013-04-03 19:03:00,
2013-04-03 15:12:00,50.0,14.0,-100.00,WNW,284,12.0,22.0,23,0.00,,,0.00,875.000000,,2013-04-03 19:12:00,
2013-04-03 15:13:00,49.0,13.0,-100.00,NW,318,13.0,26.0,23,0.00,,,0.00,756.000000,,2013-04-03 19:13:00,
2013-04-03 15:42:00,49.0,13.0,-100.00,NW,318,13.0,26.0,23,0.00,,,0.00,756.000000,,2013-04-03 19:42:00,
2013-04-03 15:52:00,49.0,13.0,-100.00,NW,318,13.0,26.0,23,0.00,,,0.00,756.000000,,2013-04-03 19:52:00,
2013-04-03 16:02:00,49.0,13.0,-100.00,NW,318,13.0,26.0,23,0.00,,,0.00,756.000000,,2013-04-03 20:02:00,
2013-04-03 16:42:00,49.0,12.0,-100.00,NW,309,12.0,24.0,22,0.00,,,0.00,681.000000,,2013-04-03 20:42:00,
2013-04-03 16:54:00,49.0,12.0,-100.00,NW,309,12.0,24.0,22,0.00,,,0.00,681.000000,,2013-04-03 20:54:00,
2013-04-03 17:03:00,49.0,12.0,-100.00,NW,309,12.0,24.0,22,0.00,,,0.00,681.000000,,2013-04-03 21:03:00,
2013-04-03 17:12:00,49.0,12.0,-100.00,NW,309,12.0,24.0,22,0.00,,,0.00,681.000000,,2013-04-03 21:12:00,
2013-04-03 17:13:00,46.0,8.0,-100.00,NNW,331,10.0,24.0,21,0.00,,,-99.99,461.000000,,2013-04-03 21:13:00,
2013-04-03 17:33:00,46.0,8.0,-100.00,NNW,331,10.0,24.0,21,0.00,,,-99.99,461.000000,,2013-04-03 21:33:00,
2013-04-03 17:42:00,46.0,8.0,-100.00,NNW,331,10.0,24.0,21,0.00,,,-99.99,461.000000,,2013-04-03 21:42:00,
2013-04-03 17:52:00,46.0,8.0,-100.00,NNW,331,10.0,24.0,21,0.00,,,-99.99,461.000000,,2013-04-03 21:52:00,
2013-04-03 18:02:00,46.0,8.0,-100.00,NNW,331,10.0,24.0,21,0.00,,,-99.99,461.000000,,2013-04-03 22:02:00,
2013-04-03 18:33:00,45.0,8.0,-100.00,NW,326,9.0,19.0,22,0.00,,,0.00,163.000000,,2013-04-03 22:33:00,
2013-04-03 18:42:00,45.0,8.0,-100.00,NW,326,9.0,19.0,22,0.00,,,0.00,163.000000,,2013-04-03 22:42:00,
2013-04-03 18:53:00,45.0,8.0,-100.00,NW,326,9.0,19.0,22,0.00,,,0.00,163.000000,,2013-04-03 22:53:00,
2013-04-03 19:02:00,45.0,8.0,-100.00,NW,326,9.0,19.0,22,0.00,,,0.00,163.000000,,2013-04-03 23:02:00,
2013-04-03 19:12:00,45.0,8.0,-100.00,NW,326,9.0,19.0,22,0.00,,,0.00,163.000000,,2013-04-03 23:12:00,
2013-04-03 19:33:00,41.0,10.0,-100.00,NNW,339,11.0,21.0,28,0.00,,,0.00,94.000000,,2013-04-03 23:33:00,
2013-04-03 19:43:00,41.0,10.0,-100.00,NNW,339,11.0,21.0,28,0.00,,,0.00,94.000000,,2013-04-03 23:43:00,
2013-04-03 19:55:00,41.0,10.0,-100.00,NNW,339,11.0,21.0,28,0.00,,,0.00,94.000000,,2013-04-03 23:55:00,
2013-04-03 20:03:00,41.0,10.0,-100.00,NNW,339,11.0,21.0,28,0.00,,,0.00,94.000000,,2013-04-04 00:03:00,
2013-04-03 20:12:00,41.0,10.0,-100.00,NNW,339,11.0,21.0,28,0.00,,,0.00,94.000000,,2013-04-04 00:12:00,
2013-04-03 20:32:00,37.0,17.0,-100.00,NNW,327,9.0,22.0,44,0.00,,,0.00,8.000000,,2013-04-04 00:32:00,
2013-04-03 20:43:00,37.0,17.0,-100.00,NNW,327,9.0,22.0,44,0.00,,,0.00,8.000000,,2013-04-04 00:43:00,
2013-04-03 20:52:00,37.0,17.0,-100.00,NNW,327,9.0,22.0,44,0.00,,,0.00,8.000000,,2013-04-04 00:52:00,
2013-04-03 21:02:00,37.0,17.0,-100.00,NNW,327,9.0,22.0,44,0.00,,,0.00,8.000000,,2013-04-04 01:02:00,
2013-04-03 21:12:00,37.0,17.0,-100.00,NNW,327,9.0,22.0,44,0.00,,,0.00,8.000000,,2013-04-04 01:12:00,
2013-04-03 21:32:00,35.0,16.0,-100.00,NNW,341,4.0,15.0,45,0.00,,,0.00,0.000000,,2013-04-04 01:32:00,
2013-04-03 21:43:00,35.0,16.0,-100.00,NNW,341,4.0,15.0,45,0.00,,,0.00,0.000000,,2013-04-04 01:43:00,
2013-04-03 21:53:00,35.0,16.0,-100.00,NNW,341,4.0,15.0,45,0.00,,,0.00,0.000000,,2013-04-04 01:53:00,
2013-04-03 22:02:00,35.0,16.0,-100.00,NNW,341,4.0,15.0,45,0.00,,,0.00,0.000000,,2013-04-04 02:02:00,
2013-04-03 22:12:00,35.0,16.0,-100.00,NNW,341,4.0,15.0,45,0.00,,,0.00,0.000000,,2013-04-04 02:12:00,
2013-04-03 23:02:00,34.0,18.0,-100.00,North,354,6.0,12.0,52,0.00,,,0.00,0.000000,,2013-04-04 03:02:00,
2013-04-03 23:12:00,34.0,18.0,-100.00,North,354,6.0,12.0,52,0.00,,,0.00,0.000000,,2013-04-04 03:12:00,
2013-04-03 23:13:00,33.0,10.0,-100.00,NNW,331,6.0,11.0,38,0.00,,,0.00,0.000000,,2013-04-04 03:13:00,
2013-04-03 23:34:00,33.0,10.0,-100.00,NNW,331,6.0,11.0,38,0.00,,,0.00,0.000000,,2013-04-04 03:34:00,
2013-04-03 23:45:00,33.0,10.0,-100.00,NNW,331,6.0,11.0,38,0.00,,,0.00,0.000000,,2013-04-04 03:45:00,
2013-04-03 23:53:00,33.0,10.0,-100.00,NNW,331,6.0,11.0,38,0.00,,,0.00,0.000000,,2013-04-04 03:53:00,